Wind_Speed
37 36 36 36 35 33 32 31 30 30 29 28 28 27 25 25 25 25 26 26 26 25 24 24 23 23 23 22 22 22 22 22 23 23 23 23 24 24 23 24 24 25 26
39 38 38 39 38 38 37 35 34 34 33 32 32 31 29 28 28 29 29 29 29 28 26 25 24 23 23 23 23 24 24 25 26 26 26 26 26 26 25 25 25 25 26
37 37 38 39 40 40 40 40 38 37 36 36 36 35 33 33 32 32 33 32 31 30 28 27 26 25 25 25 25 25 26 27 28 28 28 28 28 28 27 26 26 26 25
33 35 36 38 39 41 42 42 41 40 40 40 40 39 38 38 37 36 35 34 33 31 30 28 27 25 25 25 25 26 26 27 27 28 28 29 30 30 30 29 28 27 26
33 33 35 37 39 41 42 44 44 44 42 42 42 42 42 42 40 38 36 34 33 32 31 30 27 25 25 26 26 26 26 27 28 28 29 29 30 31 31 31 30 29 28
34 34 35 37 38 40 42 44 44 45 44 44 44 44 44 44 43 41 38 35 34 33 32 29 27 25 25 26 26 26 26 27 27 28 28 29 30 30 30 31 31 30 28
35 36 37 37 38 39 41 42 43 44 44 44 45 46 45 46 47 44 40 36 34 32 30 27 25 24 24 25 26 27 27 27 27 28 28 28 28 28 28 29 29 29 28
34 35 35 35 35 36 37 39 41 42 42 42 43 45 47 47 46 44 41 36 33 30 26 24 22 23 24 25 27 27 27 27 27 27 27 26 26 26 26 27 27 27 27
27 28 29 30 30 30 32 35 37 38 39 40 42 42 42 43 45 43 37 34 30 25 22 21 21 23 24 26 27 27 27 27 26 25 25 24 24 24 24 25 25 25 26
18 19 20 22 22 23 25 28 31 33 34 35 37 38 40 39 37 34 29 26 22 18 17 18 21 22 23 24 25 25 24 24 24 23 23 22 22 22 22 22 22 22 23
10 10 11 13 15 17 19 21 23 25 27 28 29 30 30 27 24 20 17 15 14 15 17 19 20 21 21 22 22 22 21 21 21 21 21 20 20 20 19 20 19 20 21
4 4 4 5 7 9 10 9 11 12 12 13 14 13 12 12 11 10 9 10 10 13 16 18 20 20 20 20 19 19 19 19 20 20 20 19 19 18 18 18 18 18 19
8 7 6 5 4 4 3 4 5 5 5 5 5 6 5 4 4 5 6 8 10 13 15 16 17 18 18 18 18 19 19 19 19 19 20 19 19 18 18 17 18 18 18
10 10 10 9 9 8 8 8 8 6 5 5 4 2 1 1 3 5 7 8 10 12 13 15 17 18 18 19 19 20 20 20 20 20 20 20 20 19 18 17 17 18 17
11 10 10 10 10 9 8 8 7 6 5 4 3 3 3 4 5 6 7 9 11 12 14 16 17 18 19 19 20 20 20 20 20 20 21 20 21 20 20 19 18 18 18
10 10 10 10 9 8 8 7 6 6 6 5 5 5 5 6 7 8 9 11 13 15 16 18 19 20 21 21 21 21 21 21 21 21 21 21 22 22 21 21 21 20 20
11 11 10 9 9 9 9 8 7 7 7 7 7 6 7 8 10 12 13 15 16 17 19 20 21 22 22 23 22 22 22 23 22 22 22 23 23 23 23 22 23 22 22
13 12 11 10 10 9 9 8 8 8 8 8 8 9 10 11 13 14 16 18 19 20 21 22 23 23 23 24 23 23 23 23 23 23 22 22 22 23 23 23 23 23 23
14 13 12 12 11 10 10 9 9 9 9 9 10 11 12 13 14 16 17 19 20 21 22 23 23 23 24 24 24 24 24 24 24 23 22 22 21 22 23 23 22 22 22
13 13 12 12 11 11 11 10 10 10 10 10 10 11 12 13 15 16 17 18 19 20 21 22 22 23 23 23 23 23 24 24 24 23 22 21 20 20 21 21 21 21 21
13 13 13 13 13 12 12 11 11 11 10 11 11 12 12 13 14 15 16 17 17 18 19 19 20 21 21 21 21 21 22 23 23 22 21 21 20 19 19 19 19 19 19
14 15 15 15 15 14 14 13 13 13 13 13 13 14 14 15 15 16 16 16 16 16 16 17 17 18 18 19 19 20 20 21 22 22 22 21 20 20 19 18 17 17 17
15 16 16 17 17 17 16 16 15 15 15 15 16 16 17 17 17 18 18 17 16 16 15 15 15 15 16 16 17 17 18 18 19 20 20 20 20 20 19 17 16 15 15
16 16 17 17 18 18 17 17 17 17 17 17 18 18 19 19 19 19 19 19 17 16 16 14 14 13 12 12 12 13 13 14 15 16 17 18 18 18 17 17 16 14 14
15 16 16 17 17 17 17 17 18 18 18 18 19 19 20 20 21 21 21 21 19 18 17 15 13 12 11 10 10 10 10 10 9 9 11 13 14 15 15 15 15 14 13
14 15 15 16 16 16 17 17 17 17 18 18 19 19 21 21 22 22 22 21 21 20 19 18 17 15 14 13 12 10 7 4 1 3 5 8 9 10 11 11 10 10 10
Wind_Direction
261 261 262 264 266 267 269 271 272 272 271 272 271 270 268 265 262 258 254 252 251 253 254 255 257 259 260 262 263 268 272 274 276 278 279 277 274 273 275 276 275 273 270
262 261 260 261 262 264 266 267 268 269 271 271 271 271 270 266 262 259 255 252 251 253 254 255 257 258 259 261 264 268 273 275 277 279 279 277 274 273 275 276 276 275 271
264 264 262 261 261 261 262 262 263 263 266 269 271 272 271 268 264 260 258 254 251 251 253 254 256 258 260 262 265 270 273 276 278 278 278 276 277 275 275 276 276 276 272
266 265 264 263 261 259 259 259 259 260 262 265 267 269 269 267 264 262 261 257 250 248 250 253 255 259 261 265 268 272 275 276 278 278 276 274 274 275 275 276 276 276 274
270 269 268 265 262 258 256 255 255 257 260 263 264 265 265 264 262 261 260 259 253 248 250 251 254 258 263 267 271 273 275 276 277 277 276 275 273 274 274 275 275 275 274
273 272 271 268 264 259 255 252 253 254 256 259 260 261 262 260 261 261 260 259 255 250 248 249 253 259 264 269 272 273 274 275 276 276 275 274 273 273 274 274 273 273 272
275 274 273 270 265 259 254 251 251 252 254 256 258 260 259 259 261 259 259 256 251 246 246 249 254 260 265 269 272 273 275 275 276 275 274 273 272 272 272 272 271 270 270
273 274 272 268 264 259 254 250 250 252 254 256 259 262 262 262 260 258 258 252 247 244 245 248 252 258 264 269 272 273 275 275 275 274 273 272 271 270 270 269 269 268 266
270 270 269 266 263 259 255 252 251 254 256 258 260 263 266 266 263 258 252 245 240 239 241 246 255 262 268 271 272 273 274 274 274 273 272 271 270 268 268 267 267 265 264
263 265 264 262 261 259 257 255 254 257 259 260 261 263 263 262 258 251 244 237 230 231 242 254 261 265 268 270 271 272 273 273 272 271 270 269 268 266 266 266 264 262 259
250 255 259 258 257 255 254 254 254 255 256 257 260 259 255 250 241 230 225 228 230 240 251 258 263 265 267 269 271 272 272 272 270 269 268 267 266 265 266 265 263 260 254
180 199 217 233 239 238 239 243 243 244 244 245 244 237 223 216 215 214 222 230 243 254 259 262 265 266 269 272 273 274 273 272 270 268 267 266 264 264 263 262 260 258 255
133 130 132 131 134 149 147 126 139 152 160 166 161 165 165 178 201 225 239 251 260 263 264 267 268 270 273 275 276 276 275 273 271 269 267 265 264 262 261 260 255 254 256
112 114 111 106 106 107 103 94 94 94 97 94 89 99 126 261 269 270 271 269 268 270 272 272 273 274 275 278 279 279 276 273 270 269 266 264 263 262 261 259 256 253 254
92 97 98 93 94 91 87 80 71 62 55 41 31 356 326 309 300 290 283 278 276 276 276 276 276 277 277 279 279 278 277 275 272 269 266 263 262 261 259 258 256 253 253
75 75 78 73 67 64 61 54 47 34 25 17 4 349 335 317 303 297 289 286 285 282 279 278 277 277 277 277 277 277 277 275 273 269 266 263 261 259 257 256 255 253 253
68 65 61 55 50 45 42 38 29 19 10 1 349 334 322 313 306 300 295 291 287 285 282 281 279 278 276 275 274 273 274 273 271 269 266 263 261 260 258 256 254 252 252
68 65 60 54 48 42 36 28 19 8 358 347 336 326 317 310 305 300 294 291 288 286 284 281 279 278 277 276 275 274 273 272 270 268 267 264 261 260 258 256 255 253 252
61 59 55 51 45 37 28 20 12 3 352 342 332 325 318 312 307 303 299 295 291 288 286 283 281 280 279 278 275 273 272 271 269 268 265 263 261 258 256 255 254 254 254
54 52 48 43 37 31 25 18 10 2 354 346 338 329 322 317 313 309 306 302 298 294 290 287 284 283 281 279 276 274 272 270 269 266 263 260 259 256 255 253 252 252 253
50 48 45 41 37 34 30 25 20 14 7 1 354 347 341 336 331 325 319 314 308 303 298 293 289 286 284 281 278 274 272 269 267 265 261 257 255 253 252 251 250 250 252
49 48 46 43 41 39 37 36 33 29 24 19 13 8 2 356 351 345 339 332 326 318 311 304 298 294 289 284 281 277 274 270 266 263 260 254 251 248 248 249 249 249 252
47 46 45 45 44 43 43 42 40 37 33 29 25 20 15 9 4 358 353 347 341 336 328 319 311 305 299 291 286 281 278 272 267 263 258 251 247 245 242 243 246 248 251
46 45 46 45 45 47 47 45 44 42 39 34 30 26 22 18 13 9 5 360 354 350 344 336 330 324 318 311 302 295 289 279 270 262 254 247 242 238 236 237 242 246 252
45 46 46 46 47 49 48 47 45 42 39 35 33 29 25 23 19 16 13 12 11 9 8 5 1 355 350 342 332 321 308 292 277 258 242 232 230 230 231 234 240 247 255
45 46 46 46 48 48 47 45 42 39 37 34 33 31 28 27 26 25 24 24 25 27 28 29 28 26 20 14 12 6 360 353 311 219 205 204 207 213 218 223 233 244 256
Height
5866 5867 5867 5868 5868 5868 5869 5870 5870 5869 5869 5869 5868 5868 5868 5869 5868 5869 5869 5869 5870 5870 5871 5871 5871 5871 5871 5872 5872 5872 5872 5871 5871 5871 5870 5870 5869 5868 5867 5866 5864 5863 5862
5857 5858 5859 5860 5860 5861 5861 5862 5862 5862 5862 5862 5861 5861 5861 5862 5862 5862 5862 5862 5863 5864 5865 5865 5865 5865 5866 5866 5866 5867 5866 5866 5865 5865 5865 5864 5863 5862 5861 5860 5859 5857 5856
5847 5849 5850 5851 5852 5853 5853 5854 5854 5855 5855 5854 5854 5854 5854 5854 5854 5854 5855 5855 5856 5858 5858 5859 5860 5860 5860 5861 5861 5861 5861 5860 5859 5859 5859 5858 5857 5856 5855 5854 5853 5852 5851
5838 5839 5840 5841 5842 5843 5844 5844 5845 5846 5847 5847 5847 5846 5846 5846 5846 5846 5847 5848 5849 5850 5851 5852 5853 5854 5855 5855 5855 5855 5854 5854 5852 5852 5851 5851 5850 5849 5848 5848 5847 5846 5845
5829 5830 5831 5831 5832 5833 5834 5835 5836 5837 5838 5838 5838 5838 5837 5837 5837 5838 5839 5841 5843 5844 5845 5846 5847 5847 5848 5848 5848 5848 5848 5847 5846 5845 5844 5843 5843 5842 5841 5841 5840 5839 5839
5819 5820 5821 5821 5821 5822 5823 5825 5826 5828 5829 5830 5830 5830 5829 5828 5829 5830 5832 5833 5835 5837 5838 5839 5840 5841 5842 5842 5842 5842 5841 5840 5839 5838 5837 5836 5835 5834 5834 5833 5833 5832 5832
5810 5810 5811 5811 5811 5812 5813 5815 5817 5818 5820 5821 5822 5821 5821 5821 5821 5822 5823 5825 5827 5828 5830 5832 5833 5835 5835 5835 5835 5835 5834 5833 5832 5831 5829 5828 5827 5826 5826 5826 5825 5825 5825
5800 5801 5801 5801 5801 5802 5803 5805 5807 5809 5811 5813 5814 5814 5813 5813 5814 5814 5815 5816 5818 5820 5822 5825 5826 5828 5828 5828 5828 5827 5826 5825 5824 5823 5822 5821 5820 5819 5818 5818 5818 5818 5819
5792 5792 5792 5792 5793 5794 5795 5797 5799 5801 5803 5804 5805 5806 5805 5806 5806 5806 5807 5808 5810 5812 5815 5818 5820 5821 5821 5821 5821 5820 5819 5818 5817 5816 5815 5814 5813 5812 5811 5811 5811 5812 5812
5784 5785 5785 5785 5786 5787 5788 5790 5791 5793 5795 5796 5796 5797 5797 5798 5798 5798 5799 5801 5803 5806 5810 5812 5813 5814 5814 5814 5813 5812 5812 5811 5810 5809 5808 5807 5806 5806 5805 5804 5804 5804 5805
5780 5780 5780 5780 5781 5781 5783 5783 5784 5786 5787 5788 5789 5790 5790 5791 5792 5793 5795 5797 5799 5802 5805 5806 5807 5807 5807 5807 5806 5806 5805 5804 5803 5802 5802 5801 5800 5800 5799 5799 5798 5798 5799
5776 5776 5777 5777 5777 5778 5779 5779 5779 5780 5782 5783 5784 5785 5785 5787 5788 5790 5793 5795 5796 5798 5800 5801 5801 5801 5801 5800 5800 5799 5798 5798 5797 5796 5796 5795 5795 5795 5794 5793 5793 5793 5794
5774 5774 5775 5775 5776 5776 5777 5777 5777 5778 5779 5780 5781 5783 5784 5785 5787 5788 5791 5792 5793 5794 5795 5795 5795 5795 5795 5794 5794 5793 5792 5792 5791 5790 5790 5790 5789 5789 5789 5789 5789 5789 5789
5775 5775 5775 5775 5776 5776 5776 5776 5777 5777 5779 5780 5781 5782 5783 5784 5786 5787 5788 5789 5789 5790 5790 5790 5790 5789 5789 5788 5787 5787 5786 5786 5785 5785 5784 5784 5784 5784 5784 5784 5784 5784 5785
5776 5776 5776 5776 5777 5777 5777 5778 5778 5779 5780 5780 5781 5782 5783 5783 5784 5784 5785 5785 5785 5785 5785 5785 5784 5783 5783 5782 5782 5781 5780 5780 5779 5779 5779 5778 5779 5779 5779 5779 5780 5780 5780
5779 5779 5779 5779 5779 5779 5780 5780 5780 5780 5781 5781 5781 5782 5782 5782 5782 5782 5782 5781 5781 5780 5780 5779 5778 5777 5777 5777 5776 5775 5774 5773 5772 5772 5772 5772 5773 5773 5773 5774 5775 5775 5776
5783 5782 5782 5782 5782 5781 5781 5781 5781 5781 5781 5781 5781 5781 5781 5780 5780 5779 5778 5777 5776 5775 5774 5773 5772 5771 5770 5770 5769 5768 5767 5767 5766 5765 5765 5766 5766 5767 5767 5768 5769 5770 5771
5787 5786 5785 5785 5784 5784 5783 5783 5783 5782 5782 5781 5780 5780 5779 5778 5777 5776 5774 5773 5771 5769 5768 5766 5765 5764 5763 5762 5762 5761 5760 5760 5759 5759 5759 5759 5759 5760 5761 5762 5763 5764 5765
5791 5790 5789 5788 5787 5786 5785 5784 5783 5782 5781 5780 5779 5778 5776 5775 5773 5772 5770 5768 5765 5763 5761 5760 5758 5757 5756 5755 5754 5754 5753 5752 5752 5752 5752 5753 5753 5754 5755 5756 5757 5759 5759
5795 5793 5792 5790 5789 5788 5786 5785 5783 5782 5781 5779 5777 5776 5774 5772 5770 5767 5765 5762 5760 5757 5755 5753 5751 5750 5748 5747 5747 5746 5746 5745 5745 5745 5746 5746 5747 5748 5749 5750 5752 5753 5754
5798 5796 5795 5793 5791 5789 5787 5786 5784 5782 5780 5778 5776 5774 5771 5769 5766 5764 5761 5758 5754 5751 5749 5746 5744 5743 5741 5740 5739 5739 5738 5738 5738 5738 5739 5740 5741 5742 5743 5745 5746 5748 5749
5800 5799 5797 5795 5793 5791 5789 5787 5785 5782 5780 5778 5775 5773 5770 5767 5764 5761 5757 5754 5750 5747 5744 5741 5739 5737 5735 5734 5732 5732 5731 5731 5731 5731 5732 5734 5735 5737 5739 5740 5742 5743 5745
5803 5801 5799 5797 5795 5793 5791 5788 5786 5784 5782 5779 5776 5774 5771 5767 5764 5760 5756 5752 5748 5744 5740 5737 5734 5732 5729 5728 5726 5725 5724 5723 5723 5724 5725 5727 5729 5732 5734 5736 5738 5740 5741
5806 5804 5802 5800 5798 5795 5793 5791 5789 5786 5784 5781 5779 5775 5772 5768 5764 5760 5755 5751 5746 5742 5738 5734 5731 5728 5725 5723 5721 5719 5718 5717 5716 5717 5718 5720 5723 5727 5730 5733 5735 5737 5738
5809 5807 5805 5803 5801 5799 5797 5795 5792 5790 5787 5784 5781 5778 5774 5770 5766 5761 5756 5751 5746 5741 5737 5733 5729 5726 5723 5720 5717 5715 5713 5712 5711 5711 5713 5716 5719 5723 5726 5729 5732 5734 5735
5812 5810 5808 5806 5804 5802 5800 5798 5796 5793 5790 5787 5784 5781 5777 5773 5768 5764 5758 5753 5748 5743 5739 5734 5730 5726 5723 5719 5716 5713 5711 5709 5709 5709 5711 5714 5717 5720 5723 5726 5729 5731 5733